Back to catalog

ORBCOMM FM 26

AliveCommunicationsLEO
NORAD 25480·PAYLOAD·🇺🇸 United States

Launched Sep 23, 1998 from Cape Canaveral Space Force Station

Loading…

Next Passes (next 24 hours)

TLE

FreshSource: Space-Track

Epoch: Sep 14, 2026, 09:42 UTC

1 25480U 98053F   26257.40482962  .00000432  00000-0  18787-3 0  9994
2 25480  45.0058 271.6392 0005715 354.7021   5.3766 14.38088910463016

Track ORBCOMM FM 26 in real time with AllMySat

Download on the App Store